SL-14 DEB, 45298

Orbit data source: Space-Track

SL-14 DEB, 45298 is space debris in LEO originally from a launch on Thu, 15 Aug 1991 UTC launched from the Plesetsk Missile And Space Complex (PKMTR). Debris objects in space refer to the collection of defunct objects orbiting the Earth. Examples of debris include non-operational satellites, rocket bodies, and fragments generated from explosions, collisions, or faulty payload assembly.

Loading next visibility...
Identifier
45298, 1991-056AL
Orbit
LEO
Country
Flag of CISCIS
Related business
Manufacturer
Unknown
Mission
Spacecraft
Bus & Motor
Unknown
Mass
Unknown
Launch date (UTC)
1991-08-15 (34 years ago)
Launch vehicle
Unknown
Launch site
Plesetsk Missile And Space Complex (PKMTR)
Object type
Payload
Rocket body
Debris
Shape & HBR
Unknown
Radar Cross Section
Medium (>0.1 m² and <1 m²)

Expand to show TLE details & history
Last TLE update: 22 hours ago

TLE from 22 hours ago
0 SL-14 DEB
1 45298U 91056AL  25242.08814255  .00003964  00000-0  45080-2 0  9998
2 45298  82.5918 257.4081 0175954 118.5630 243.3355 13.63477136272226
Epoch: 2025-08-30T02:06Z
TLE epoch observation values (Epoch: 2025-08-30T02:06:55.516Z)
Latitude
0.00003°
Longitude
-112.85067°
Altitude
1,086.22 km
Speed
7.279 km/s
True Right ascension
17h 09m 37s
True Declination
0° 00' 00"
Sunlit
Object was in daylight at epoch
Visualization orbit readout
Latitude
Unknown
Longitude
Unknown
Altitude
Unknown
Speed
Unknown
Apparent Right ascension
Unknown
Apparent Declination
Unknown
Sunlit
N/A
Visualization observer readout
Local Sidereal Time
15:54:34
Azimuth
Unknown
Elevation
Unknown
Doppler factor
Unknown
Orbital elements
Apogee altitude
1,150.437 km
Perigee altitude
890.082 km
Semi-major axis
7,398.396 km
Eccentricity
0.0176
Inclination
82.5918°
RAAN
257.4081°
Arg. of periapsis
118.563°
True anomaly
241.55155°
Mean anomaly
243.3355°
Eccentric anomaly
242.44174°
Mean motion
3.41065 °/min
Orbital period
105.55 mins
BSTAR
0.004508
Loading maneuver chart data...
Computing Atmospheric mass density...
Loading historical data...
Loading historical data...
Loading historical data...
Loading historical data...
Loading historical data...
Loading historical data...
Loading historical data...

Documentation

Showing up to 5 results
|